Time,TemperatureF,DewpointF,PressureIn,WindDirection,WindDirectionDegrees,WindSpeedMPH,WindSpeedGustMPH,Humidity,HourlyPrecipIn,Conditions,Clouds,dailyrainin,SolarRadiationWatts/m^2,SoftwareType,DateUTC
2013-06-03 00:07:00,79.4,75.0,30.04,East,92,6.0,10.0,85,0.00,,,0.00,0,weatherlink.com 1.10,2013-06-03 04:07:00,
2013-06-03 00:22:00,79.3,75.0,30.04,East,87,5.0,9.0,85,0.00,,,0.00,0,weatherlink.com 1.10,2013-06-03 04:22:00,
2013-06-03 00:37:00,79.2,74.0,30.03,East,87,6.0,10.0,85,0.00,,,0.00,0,weatherlink.com 1.10,2013-06-03 04:37:00,
2013-06-03 00:54:00,79.0,74.0,30.02,East,79,9.0,14.0,85,0.00,,,0.00,0,weatherlink.com 1.10,2013-06-03 04:54:00,
2013-06-03 01:08:00,79.1,74.0,30.02,East,86,5.0,13.0,84,0.00,,,0.00,0,weatherlink.com 1.10,2013-06-03 05:08:00,
2013-06-03 01:23:00,79.1,74.0,30.01,East,85,3.0,8.0,84,0.00,,,0.00,0,weatherlink.com 1.10,2013-06-03 05:23:00,
2013-06-03 01:38:00,78.9,74.0,30.01,ENE,71,4.0,10.0,85,0.00,,,0.00,0,weatherlink.com 1.10,2013-06-03 05:38:00,
2013-06-03 01:54:00,78.9,74.0,30.01,ESE,108,5.0,11.0,85,0.00,,,0.00,0,weatherlink.com 1.10,2013-06-03 05:54:00,
2013-06-03 02:08:00,78.8,74.0,30.01,East,89,8.0,9.0,85,0.00,,,0.00,0,weatherlink.com 1.10,2013-06-03 06:08:00,
2013-06-03 02:24:00,78.7,74.0,30.00,ENE,73,9.0,11.0,85,0.00,,,0.00,0,weatherlink.com 1.10,2013-06-03 06:24:00,
2013-06-03 02:39:00,78.6,74.0,30.00,East,79,6.0,8.0,85,0.00,,,0.00,0,weatherlink.com 1.10,2013-06-03 06:39:00,
2013-06-03 02:54:00,78.4,74.0,30.00,ESE,119,2.0,9.0,85,0.00,,,0.00,0,weatherlink.com 1.10,2013-06-03 06:54:00,
2013-06-03 03:09:00,78.2,74.0,30.00,ESE,107,2.0,7.0,86,0.00,,,0.00,0,weatherlink.com 1.10,2013-06-03 07:09:00,
2013-06-03 03:24:00,78.1,74.0,30.00,SE,125,1.0,7.0,86,0.00,,,0.00,0,weatherlink.com 1.10,2013-06-03 07:24:00,
2013-06-03 03:40:00,77.9,74.0,30.00,SE,125,0.0,5.0,86,0.00,,,0.00,0,weatherlink.com 1.10,2013-06-03 07:40:00,
2013-06-03 03:55:00,77.5,73.0,30.00,SE,125,2.0,3.0,87,0.00,,,0.00,0,weatherlink.com 1.10,2013-06-03 07:55:00,
2013-06-03 04:09:00,77.2,73.0,30.00,SE,125,1.0,2.0,87,0.00,,,0.00,0,weatherlink.com 1.10,2013-06-03 08:09:00,
2013-06-03 04:40:00,77.2,74.0,30.00,SE,125,2.0,5.0,88,0.00,,,0.00,0,weatherlink.com 1.10,2013-06-03 08:40:00,
2013-06-03 04:55:00,77.3,74.0,30.00,SE,125,4.0,5.0,88,0.00,,,0.00,0,weatherlink.com 1.10,2013-06-03 08:55:00,
2013-06-03 05:10:00,77.3,74.0,30.01,SE,125,1.0,5.0,88,0.00,,,0.00,0,weatherlink.com 1.10,2013-06-03 09:10:00,
2013-06-03 05:25:00,77.3,74.0,30.01,SE,125,2.0,4.0,88,0.00,,,0.00,0,weatherlink.com 1.10,2013-06-03 09:25:00,
2013-06-03 05:40:00,77.5,74.0,30.01,SE,125,0.0,5.0,89,0.00,,,0.00,0,weatherlink.com 1.10,2013-06-03 09:40:00,
2013-06-03 05:55:00,77.5,74.0,30.01,ESE,117,1.0,2.0,89,0.00,,,0.00,16,weatherlink.com 1.10,2013-06-03 09:55:00,
2013-06-03 06:11:00,78.1,75.0,30.02,NE,56,3.0,7.0,89,0.00,,,0.00,40,weatherlink.com 1.10,2013-06-03 10:11:00,
2013-06-03 06:26:00,78.5,75.0,30.03,ENE,78,4.0,5.0,89,0.00,,,0.00,84,weatherlink.com 1.10,2013-06-03 10:26:00,
2013-06-03 06:42:00,79.2,75.0,30.03,ENE,78,2.0,5.0,88,0.00,,,0.00,100,weatherlink.com 1.10,2013-06-03 10:42:00,
2013-06-03 06:57:00,79.5,75.0,30.03,East,94,2.0,9.0,87,0.00,,,0.00,79,weatherlink.com 1.10,2013-06-03 10:57:00,
2013-06-03 07:12:00,79.8,75.0,30.04,SE,130,6.0,7.0,86,0.00,,,0.00,223,weatherlink.com 1.10,2013-06-03 11:12:00,
2013-06-03 07:27:00,80.7,76.0,30.04,ESE,112,5.0,11.0,84,0.00,,,0.00,258,weatherlink.com 1.10,2013-06-03 11:27:00,
2013-06-03 07:43:00,81.9,76.0,30.04,SE,136,5.0,8.0,82,0.00,,,0.00,352,weatherlink.com 1.10,2013-06-03 11:43:00,
2013-06-03 07:58:00,82.9,76.0,30.04,ESE,118,5.0,11.0,79,0.00,,,0.00,436,weatherlink.com 1.10,2013-06-03 11:58:00,
2013-06-03 08:13:00,83.6,76.0,30.04,ESE,123,4.0,11.0,77,0.00,,,0.00,515,weatherlink.com 1.10,2013-06-03 12:13:00,
2013-06-03 08:27:00,84.7,76.0,30.03,East,94,6.0,10.0,75,0.00,,,0.00,526,weatherlink.com 1.10,2013-06-03 12:27:00,
2013-06-03 08:44:00,84.7,76.0,30.03,ESE,123,7.0,10.0,74,0.00,,,0.00,345,weatherlink.com 1.10,2013-06-03 12:44:00,
2013-06-03 08:59:00,85.4,76.0,30.03,East,89,7.0,13.0,73,0.00,,,0.00,543,weatherlink.com 1.10,2013-06-03 12:59:00,
2013-06-03 09:13:00,86.0,76.0,30.03,ENE,70,4.0,10.0,73,0.00,,,0.00,209,weatherlink.com 1.10,2013-06-03 13:13:00,
2013-06-03 09:28:00,85.6,77.0,30.03,East,81,6.0,15.0,75,0.00,,,0.00,652,weatherlink.com 1.10,2013-06-03 13:28:00,
2013-06-03 09:43:00,84.6,77.0,30.03,NE,43,9.0,18.0,78,0.00,,,0.00,218,weatherlink.com 1.10,2013-06-03 13:43:00,
2013-06-03 10:00:00,84.9,77.0,30.03,East,101,6.0,16.0,77,0.00,,,0.00,795,weatherlink.com 1.10,2013-06-03 14:00:00,
2013-06-03 10:14:00,85.1,77.0,30.03,ENE,75,5.0,18.0,76,0.00,,,0.00,877,weatherlink.com 1.10,2013-06-03 14:14:00,
2013-06-03 10:29:00,85.4,77.0,30.03,East,79,15.0,21.0,75,0.00,,,0.00,737,weatherlink.com 1.10,2013-06-03 14:29:00,
2013-06-03 10:44:00,85.5,77.0,30.03,ENE,74,14.0,18.0,75,0.00,,,0.00,793,weatherlink.com 1.10,2013-06-03 14:44:00,
2013-06-03 10:59:00,86.2,77.0,30.02,East,89,9.0,17.0,75,0.00,,,0.00,868,weatherlink.com 1.10,2013-06-03 14:59:00,
2013-06-03 11:15:00,86.4,78.0,30.02,ENE,74,12.0,19.0,75,0.00,,,0.00,907,weatherlink.com 1.10,2013-06-03 15:15:00,
2013-06-03 11:29:00,85.4,77.0,30.02,ENE,57,9.0,20.0,76,0.00,,,0.00,336,weatherlink.com 1.10,2013-06-03 15:29:00,
2013-06-03 11:45:00,84.3,77.0,30.02,NE,53,7.0,18.0,78,0.00,,,0.00,624,weatherlink.com 1.10,2013-06-03 15:45:00,
2013-06-03 12:00:00,85.4,78.0,30.02,NNE,25,7.0,17.0,78,0.00,,,0.00,1000,weatherlink.com 1.10,2013-06-03 16:00:00,
2013-06-03 12:15:00,86.2,78.0,30.01,NE,53,14.0,23.0,76,0.00,,,0.00,956,weatherlink.com 1.10,2013-06-03 16:15:00,
2013-06-03 12:31:00,86.3,78.0,30.01,NE,42,11.0,19.0,76,0.00,,,0.00,951,weatherlink.com 1.10,2013-06-03 16:31:00,
2013-06-03 12:47:00,86.1,78.0,30.00,NNE,33,11.0,18.0,77,0.00,,,0.00,951,weatherlink.com 1.10,2013-06-03 16:47:00,
2013-06-03 13:01:00,86.6,77.0,30.00,ENE,57,14.0,16.0,74,0.00,,,0.00,956,weatherlink.com 1.10,2013-06-03 17:01:00,
2013-06-03 13:16:00,86.7,77.0,30.00,East,82,5.0,19.0,73,0.00,,,0.00,921,weatherlink.com 1.10,2013-06-03 17:16:00,
2013-06-03 13:32:00,87.0,77.0,29.99,ENE,76,13.0,17.0,72,0.00,,,0.00,912,weatherlink.com 1.10,2013-06-03 17:32:00,
2013-06-03 13:47:00,86.9,78.0,29.98,ENE,61,10.0,21.0,74,0.00,,,0.00,909,weatherlink.com 1.10,2013-06-03 17:47:00,
2013-06-03 14:01:00,86.6,78.0,29.98,East,80,6.0,19.0,75,0.00,,,0.00,926,weatherlink.com 1.10,2013-06-03 18:01:00,
2013-06-03 14:16:00,86.1,78.0,29.98,NE,55,14.0,19.0,76,0.00,,,0.00,334,weatherlink.com 1.10,2013-06-03 18:16:00,
2013-06-03 14:31:00,86.0,78.0,29.97,ENE,61,7.0,18.0,77,0.00,,,0.00,717,weatherlink.com 1.10,2013-06-03 18:31:00,
2013-06-03 14:48:00,85.3,78.0,29.97,ENE,70,10.0,22.0,78,0.00,,,0.00,838,weatherlink.com 1.10,2013-06-03 18:48:00,
2013-06-03 15:03:00,85.8,78.0,29.97,ENE,61,11.0,21.0,77,0.00,,,0.00,473,weatherlink.com 1.10,2013-06-03 19:03:00,
2013-06-03 15:18:00,84.1,77.0,29.97,East,80,10.0,21.0,80,0.00,,,0.00,186,weatherlink.com 1.10,2013-06-03 19:18:00,
2013-06-03 15:33:00,84.3,78.0,29.97,NE,53,14.0,19.0,80,0.00,,,0.00,700,weatherlink.com 1.10,2013-06-03 19:33:00,
2013-06-03 15:48:00,85.3,78.0,29.97,East,85,5.0,19.0,78,0.00,,,0.00,613,weatherlink.com 1.10,2013-06-03 19:48:00,
2013-06-03 16:04:00,85.1,78.0,29.96,ENE,74,7.0,19.0,78,0.00,,,0.00,487,weatherlink.com 1.10,2013-06-03 20:04:00,
2013-06-03 16:19:00,84.9,77.0,29.96,East,85,15.0,21.0,77,0.00,,,0.00,450,weatherlink.com 1.10,2013-06-03 20:19:00,
2013-06-03 16:34:00,84.6,77.0,29.96,East,82,9.0,23.0,77,0.00,,,0.00,406,weatherlink.com 1.10,2013-06-03 20:34:00,
2013-06-03 16:48:00,84.7,78.0,29.96,ENE,61,7.0,17.0,79,0.00,,,0.00,352,weatherlink.com 1.10,2013-06-03 20:48:00,
2013-06-03 17:03:00,84.3,78.0,29.96,NE,43,6.0,17.0,81,0.00,,,0.00,308,weatherlink.com 1.10,2013-06-03 21:03:00,
2013-06-03 17:18:00,83.9,78.0,29.97,East,92,14.0,22.0,82,0.00,,,0.00,267,weatherlink.com 1.10,2013-06-03 21:18:00,
2013-06-03 17:33:00,83.5,78.0,29.98,East,86,7.0,18.0,82,0.00,,,0.00,218,weatherlink.com 1.10,2013-06-03 21:33:00,
2013-06-03 17:49:00,83.1,78.0,29.98,ENE,78,7.0,18.0,84,0.00,,,0.00,118,weatherlink.com 1.10,2013-06-03 21:49:00,
2013-06-03 18:05:00,81.1,76.0,29.98,ENE,58,11.0,19.0,84,0.00,,,0.00,40,weatherlink.com 1.10,2013-06-03 22:05:00,
2013-06-03 18:19:00,80.1,75.0,29.98,East,86,5.0,16.0,84,0.00,,,0.00,46,weatherlink.com 1.10,2013-06-03 22:19:00,
2013-06-03 18:34:00,80.1,75.0,29.98,East,96,7.0,16.0,84,0.00,,,0.00,25,weatherlink.com 1.10,2013-06-03 22:34:00,
2013-06-03 18:49:00,80.5,75.0,29.99,East,84,7.0,15.0,84,0.00,,,0.00,7,weatherlink.com 1.10,2013-06-03 22:49:00,
2013-06-03 19:05:00,80.8,76.0,30.00,ESE,114,2.0,11.0,85,0.00,,,0.00,0,weatherlink.com 1.10,2013-06-03 23:05:00,
2013-06-03 19:20:00,80.7,77.0,30.00,ENE,71,5.0,14.0,87,0.00,,,0.00,0,weatherlink.com 1.10,2013-06-03 23:20:00,
2013-06-03 19:35:00,80.5,77.0,30.01,ENE,71,5.0,12.0,88,0.00,,,0.00,0,weatherlink.com 1.10,2013-06-03 23:35:00,
2013-06-03 19:50:00,79.8,76.0,30.02,NE,53,4.0,16.0,88,0.00,,,0.00,0,weatherlink.com 1.10,2013-06-03 23:50:00,
2013-06-03 20:05:00,80.1,76.0,30.02,East,84,8.0,13.0,88,0.00,,,0.00,0,weatherlink.com 1.10,2013-06-04 00:05:00,
2013-06-03 20:20:00,80.3,77.0,30.02,NE,51,11.0,12.0,89,0.00,,,0.00,0,weatherlink.com 1.10,2013-06-04 00:20:00,
2013-06-03 20:35:00,80.2,77.0,30.02,East,80,6.0,13.0,89,0.00,,,0.00,0,weatherlink.com 1.10,2013-06-04 00:35:00,
2013-06-03 20:52:00,79.9,77.0,30.02,ENE,72,7.0,14.0,91,0.00,,,0.00,0,weatherlink.com 1.10,2013-06-04 00:52:00,
2013-06-03 21:06:00,79.5,77.0,30.02,ENE,72,5.0,15.0,91,0.00,,,0.00,0,weatherlink.com 1.10,2013-06-04 01:06:00,
2013-06-03 21:22:00,79.4,77.0,30.03,ENE,63,12.0,12.0,91,0.00,,,0.00,0,weatherlink.com 1.10,2013-06-04 01:22:00,
2013-06-03 21:37:00,78.7,76.0,30.03,East,86,5.0,11.0,90,0.00,,,0.00,0,weatherlink.com 1.10,2013-06-04 01:37:00,
2013-06-03 21:52:00,78.9,76.0,30.03,East,94,7.0,13.0,91,0.00,,,0.00,0,weatherlink.com 1.10,2013-06-04 01:52:00,
2013-06-03 22:07:00,79.0,76.0,30.03,East,87,6.0,10.0,91,0.00,,,0.00,0,weatherlink.com 1.10,2013-06-04 02:07:00,
2013-06-03 22:22:00,79.2,76.0,30.03,East,85,6.0,13.0,90,0.00,,,0.00,0,weatherlink.com 1.10,2013-06-04 02:22:00,
2013-06-03 22:37:00,79.3,76.0,30.04,East,94,5.0,9.0,89,0.00,,,0.00,0,weatherlink.com 1.10,2013-06-04 02:37:00,
2013-06-03 22:52:00,79.5,76.0,30.04,ENE,69,3.0,13.0,89,0.00,,,0.00,0,weatherlink.com 1.10,2013-06-04 02:52:00,
2013-06-03 23:07:00,79.5,76.0,30.04,East,88,9.0,11.0,89,0.00,,,0.00,0,weatherlink.com 1.10,2013-06-04 03:07:00,
2013-06-03 23:22:00,79.7,76.0,30.03,ESE,114,8.0,13.0,89,0.00,,,0.00,0,weatherlink.com 1.10,2013-06-04 03:22:00,
2013-06-03 23:37:00,79.7,76.0,30.03,ENE,69,5.0,14.0,89,0.00,,,0.00,0,weatherlink.com 1.10,2013-06-04 03:37:00,
2013-06-03 23:52:00,79.6,76.0,30.02,ESE,103,7.0,10.0,89,0.00,,,0.00,0,weatherlink.com 1.10,2013-06-04 03:52:00,